Regional Weather Roundup
Issued by NWS Burlington, VT

Home | Current Version | Previous Version | Text Only | Print | Product List | Glossary On
Versions: 1 2 3 4 5 6 7 8 9 10 11 12 13 14 15 16 17 18 19 20 21 22 23 24 25 26 27 28 29 30 31 32 33 34 35 36 37 38 39 40 41 42 43 44 45 46 47 48 49 50
000
ASUS41 KBTV 261610
RWRBTV
VERMONT REGIONAL WEATHER ROUNDUP
NATIONAL WEATHER SERVICE BURLINGTON VT
1200 PM EDT THU MAY 26 2016

NOTE: "FAIR" INDICATES FEW OR NO CLOUDS BELOW 12,000 FEET WITH NO
SIGNIFICANT WEATHER AND/OR OBSTRUCTIONS TO VISIBILITY.

* THESE REPORTS ARE NOT UNDER NWS QUALITY CONTROL AND/OR DO NOT
  REPORT WEATHER SUCH AS PRECIPITATION AND FOG.

VTZ001>019-261700-
_____VERMONT_____


CITY           SKY/WX    TMP DP  RH WIND       PRES   REMARKS
BURLINGTON     PTSUNNY   75  52  44 CALM      30.11F
MONTPELIER     FAIR      71  50  47 VRB5      30.15F
MORRISVILLE    FAIR      72  45  37 CALM      30.12F
ST. JOHNSBURY*   N/A     74  47  38 MISG      30.08F
LYNDONVILLE*   FAIR      71  44  38 NW10      30.13F
RUTLAND*       FAIR      74  57  55 N6        30.11F
SPRINGFIELD    FAIR      79  58  48 E5        30.08F
HIGHGATE*      FAIR      70  46  41 NW6       30.12S
NEWPORT*       FAIR      68  49  50 NE6       30.14F
BENNINGTON     FAIR      79  59  50 VRB3      30.11S
SUTTON*          N/A     72 N/A N/A MISG        N/A

_____LAKE CHAMPLAIN_____


CITY           SKY/WX    TMP DP  RH WIND       PRES   REMARKS
BURTON ISLAND*   N/A     66  52  59 NW1         N/A
COLCHESTER RF*   N/A     63  54  72 E3          N/A
DIAMOND ISL*     N/A     63  52  67 N13         N/A

$$

NYZ007-026>031-035-052-083-087-261700-
_____NORTHERN NEW YORK_____


CITY           SKY/WX    TMP DP  RH WIND       PRES   REMARKS
PLATTSBURGH    MOSUNNY   69  49  48 NE6       30.12S
SARANAC LAKE   MOSUNNY   76  50  40 S9        30.10S
MASSENA        MOSUNNY   73  48  41 NE13      30.10F
OGDENSBURG*    SUNNY     79  57  47 N7        30.06F
POTSDAM*       SUNNY     75  61  60 NE6       30.08F
WATERTOWN      CLOUDY    79  57  46 VRB5      30.04F
ALBANY         CLOUDY    78  58  49 VRB3      30.10S
GLENS FALLS    PTSUNNY   76  54  46 CALM      30.10S

$$
NHZ002-005-011-261700-
_____NEW HAMPSHIRE_____


CITY           SKY/WX    TMP DP  RH WIND       PRES   REMARKS
LEBANON        SUNNY     76  56  49 VRB5      30.08F
MT WASHINGTON  PTSUNNY   52  19  28 NW10        N/A
PLYMOUTH       FAIR      76  48  37 W8        30.08F
WHITEFIELD     SUNNY     74  45  35 MISG      30.11F

$$

_____REGIONAL QUEBEC LOCATIONS_____


CITY           SKY/WX    TMP DP  RH WIND       PRES   REMARKS
MONTREAL       PTSUNNY   70  43  37 NE5       30.12F
QUEBEC CITY    MOSUNNY   64  48  55 VRB7      30.13F
SHERBROOKE     SUNNY     68  41  37 NW9       30.12F

_____REGIONAL ONTARIO LOCATIONS_____


CITY           SKY/WX    TMP DP  RH WIND       PRES   REMARKS
OTTAWA         PTSUNNY   73  50  43 E12       30.10F

______KEY______
VSB  - VISIBILITY IN MILES
WCI  - WIND CHILL INDEX
HX   - HEAT INDEX
$$
NNNN




USA.gov is the U.S. government's official web portal to all federal, state and local government web resources and services.